(189322) = 2007 AL1

Discovered at Mount Lemmon on 2007-01-08 by Mt. Lemmon Survey.

Orbit

Orbit type: Main Belt

Note: WebGL enabled browser required.

epoch2023-09-13.0
epoch JD2460200.5
perihelion date2020-03-11.91044
perihelion JD2458920.41044
argument of perihelion (°)359.44246
ascending node (°)116.57442
inclination (°)6.02555
eccentricity0.1257032
perihelion distance (AU)2.3471722
Tisserand w.r.t. Jupiter3.4
ΔV w.r.t. Earth (km/sec)9.8
semimajor axis (AU)2.6846401
mean anomaly (°)286.82374
mean daily motion (°/day)0.22406540
aphelion distance (AU)3.022
period (years)4.4
P-vector [x]-0.43868399
P-vector [y]0.82489314
P-vector [z]0.35652161
Q-vector [x]-0.89372396
Q-vector [y]-0.44192651
Q-vector [z]-0.07719096
absolute magnitude16.43
phase slope0.15
uncertainty0
referenceMPEC 2024-A158
observations used409
oppositions14
arc length (days)8115
first opposition used2001
last opposition used2024
residual rms (arc-secs)0.71
perturbers coarse indicatorM-v
perturbers precise indicator003Ek
first observation date used2001-10-25.0
last observation date used2024-01-13.0
computer nameMPCLINUX
JD of orbit computation2456966.893141
perihelion JD uncertainty (days)1.3360E-04
argument of perihelion uncertainty (°)5.2395E-05
ascending node uncertainty (°)4.4510E-05
inclination uncertainty (°)3.3805E-06
eccentricity uncertainty 3.6536E-08
perihelion distance uncertainty (AU)1.1001E-07
Minimum Orbit Intersection Distances (in AU)
for orbit epoch: 2460200.5, reference: E2024-AF8
Mercury2.02392
Venus1.62931
Earth1.36212
Mars0.70599
Jupiter2.06232
Saturn6.63783
Uranus15.9603
Neptune27.0699

Observations

420 total observations over interval: 2001 10 25.34600 – 2024 01 13.130128
These data are available for download (format description).

Date (UT) J2000 RA J2000 Dec Magn Location Ref
2001 10 25.34600 02 31 37.37 +04 43 10.8 20.2   644 – Palomar Mountain/NEAT MPS 199520
2001 10 25.35662 02 31 36.80 +04 43 07.3 20.1   644 – Palomar Mountain/NEAT MPS 199520
2001 10 25.36720 02 31 36.22 +04 43 04.5 19.8   644 – Palomar Mountain/NEAT MPS 199520
2001 11 18.22286 02 11 09.42 +03 25 23.3 19.4   704 – Lincoln Laboratory ETS, New Mexico MPS 213856
2001 11 18.25266 02 11 08.08 +03 25 19.4 19.9   704 – Lincoln Laboratory ETS, New Mexico MPS 213856
2001 11 18.28248 02 11 06.64 +03 25 14.6 20.2   704 – Lincoln Laboratory ETS, New Mexico MPS 213856
2003 03 12.41087 11 58 31.29 +09 24 13.7 19.5   644 – Palomar Mountain/NEAT MPS 199520
2003 03 12.44190 11 58 29.75 +09 24 27.4 19.4   644 – Palomar Mountain/NEAT MPS 199520
2003 03 12.46399 11 58 28.62 +09 24 36.4 19.9   644 – Palomar Mountain/NEAT MPS 199520
2003 03 26.26718 11 47 12.64 +10 53 06.0 19.6 R 699 – Lowell Observatory-LONEOS MPS 199520
2003 03 26.28329 11 47 11.78 +10 53 10.4   699 – Lowell Observatory-LONEOS MPS 199520
2003 03 26.29945 11 47 11.08 +10 53 17.3   699 – Lowell Observatory-LONEOS MPS 199520
2003 03 26.31560 11 47 10.25 +10 53 22.5   699 – Lowell Observatory-LONEOS MPS 199520
2003 03 31.205240 11 43 26.882 +11 17 38.43 19.94 V 645 – Apache Point-Sloan Digital Sky Survey MPS 199520
2003 03 31.208712 11 43 26.723 +11 17 39.28 20.75   645 – Apache Point-Sloan Digital Sky Survey MPS 199520
2006 11 01.38668 08 11 53.73 +17 28 24.6 20.4 V G96 – Mt. Lemmon Survey MPS 199520
2006 11 01.39800 08 11 54.34 +17 28 22.9 20.9 V G96 – Mt. Lemmon Survey MPS 199520
2006 11 01.40960 08 11 55.03 +17 28 21.4 20.9 V G96 – Mt. Lemmon Survey MPS 199520
2006 11 01.42094 08 11 55.68 +17 28 20.2 20.9 V G96 – Mt. Lemmon Survey MPS 199520
2007 01 08.47321 08 18 53.20 +19 31 24.9 19.5 V G96 – Mt. Lemmon Survey MPS 195597
2007 01 08.47904 08 18 52.92 +19 31 27.0 19.2 V G96 – Mt. Lemmon Survey MPS 195597
2007 01 08.48493 08 18 52.63 +19 31 29.0 19.2 V G96 – Mt. Lemmon Survey MPS 195597
2007 01 08.49071 08 18 52.34 +19 31 31.6 19.4 V G96 – Mt. Lemmon Survey MPS 195597
2007 01 09.24420 08 18 15.10 +19 36 01.1   691 – Steward Observatory, Kitt Peak-Spacewatch MPS 195597
2007 01 09.26152 08 18 14.20 +19 36 07.5   691 – Steward Observatory, Kitt Peak-Spacewatch MPS 195597
2007 01 09.27889 08 18 13.29 +19 36 13.7   691 – Steward Observatory, Kitt Peak-Spacewatch MPS 195597
2007 01 16.23210 08 12 02.62 +20 18 38.7 19.0   704 – Lincoln Laboratory ETS, New Mexico MPS 196438
2007 01 16.24459 08 12 01.87 +20 18 43.4 19.2   704 – Lincoln Laboratory ETS, New Mexico MPS 196438
2007 01 16.25705 08 12 01.21 +20 18 48.6 19.1   704 – Lincoln Laboratory ETS, New Mexico MPS 196438
2007 01 16.26951 08 12 00.45 +20 18 52.7 19.6   704 – Lincoln Laboratory ETS, New Mexico MPS 196438
2007 01 16.28198 08 11 59.73 +20 18 56.6 19.7   704 – Lincoln Laboratory ETS, New Mexico MPS 196438
2007 01 17.28989 08 11 03.52 +20 25 09.6 18.5 R 644 – Palomar Mountain/NEAT MPS 197130
2007 01 17.31147 08 11 02.25 +20 25 17.8 18.4 R 644 – Palomar Mountain/NEAT MPS 197130
2007 01 17.33183 08 11 01.06 +20 25 25.4 18.6 R 644 – Palomar Mountain/NEAT MPS 197130
2007 01 19.32042 08 09 09.07 +20 37 40.1 18.7 R 699 – Lowell Observatory-LONEOS MPS 196438
2007 01 19.34237 08 09 07.82 +20 37 47.7   699 – Lowell Observatory-LONEOS MPS 196438
2007 01 19.36430 08 09 06.49 +20 37 56.2   699 – Lowell Observatory-LONEOS MPS 196438
2007 01 19.38624 08 09 05.21 +20 38 03.6   699 – Lowell Observatory-LONEOS MPS 196438
2007 01 23.27399 08 05 25.53 +21 01 41.8 19.0 C 704 – Lincoln Laboratory ETS, New Mexico MPS 289783
2007 01 23.29899 08 05 23.98 +21 01 52.2 19.4 C 704 – Lincoln Laboratory ETS, New Mexico MPS 289783
2007 01 23.31146 08 05 23.22 +21 01 56.7 18.7 C 704 – Lincoln Laboratory ETS, New Mexico MPS 289783
2007 01 23.32406 08 05 22.50 +21 02 01.4 18.9 C 704 – Lincoln Laboratory ETS, New Mexico MPS 289783
2007 01 24.26993 08 04 29.38 +21 07 40.5 19.2 V G96 – Mt. Lemmon Survey MPS 197130
2007 01 24.27696 08 04 28.99 +21 07 42.9 19.2 V G96 – Mt. Lemmon Survey MPS 197130
2007 01 24.28402 08 04 28.56 +21 07 45.4 19.3 V G96 – Mt. Lemmon Survey MPS 197130
2007 01 24.29105 08 04 28.16 +21 07 47.9 19.2 V G96 – Mt. Lemmon Survey MPS 197130
2007 01 27.15343 08 01 49.10 +21 24 37.0 19.6 V 691 – Steward Observatory, Kitt Peak-Spacewatch MPS 198210
2007 01 27.16364 08 01 48.51 +21 24 40.7 19.6 V 691 – Steward Observatory, Kitt Peak-Spacewatch MPS 198210
2007 01 27.17393 08 01 47.95 +21 24 44.3 19.7 V 691 – Steward Observatory, Kitt Peak-Spacewatch MPS 198210
2007 02 05.24357 07 54 00.78 +22 13 50.8 19.8 R 644 – Palomar Mountain/NEAT MPS 198773
2007 02 05.26396 07 53 59.79 +22 13 57.0 19.3 R 644 – Palomar Mountain/NEAT MPS 198773
2007 02 05.28433 07 53 58.80 +22 14 03.2 20.0 R 644 – Palomar Mountain/NEAT MPS 198773
2007 02 06.36648 07 53 08.55 +22 19 22.5 19.3 V G96 – Mt. Lemmon Survey MPS 198773
2007 02 06.37508 07 53 08.08 +22 19 24.7 19.5 V G96 – Mt. Lemmon Survey MPS 198773
2007 02 06.38361 07 53 07.69 +22 19 27.1 19.6 V G96 – Mt. Lemmon Survey MPS 198773
2007 02 06.39222 07 53 07.26 +22 19 29.4 19.3 V G96 – Mt. Lemmon Survey MPS 198773
2007 02 13.25195 07 48 28.26 +22 50 14.9 19.8   704 – Lincoln Laboratory ETS, New Mexico MPS 199520
2007 02 13.26310 07 48 27.85 +22 50 19.1 19.9   704 – Lincoln Laboratory ETS, New Mexico MPS 199520
2007 02 13.27424 07 48 27.40 +22 50 21.7 19.5   704 – Lincoln Laboratory ETS, New Mexico MPS 199520
2007 02 13.28557 07 48 26.97 +22 50 24.0 20.0   704 – Lincoln Laboratory ETS, New Mexico MPS 199520
2007 02 15.88943 07 47 00.72 +23 00 36.4 19.3 R 185 – Observatoire Astronomique Jurassien-Vicques MPS 199520
2007 02 15.90642 07 47 00.14 +23 00 39.5 19.5 R 185 – Observatoire Astronomique Jurassien-Vicques MPS 199520
2007 02 15.91653 07 46 59.82 +23 00 42.2 19.7 R 185 – Observatoire Astronomique Jurassien-Vicques MPS 199520
2007 02 16.22279 07 46 50.66 +23 01 49.0 17.8 V G96 – Mt. Lemmon Survey MPS 199520
2007 02 16.22737 07 46 50.62 +23 01 48.8 17.8 V G96 – Mt. Lemmon Survey MPS 199520
2007 02 16.23193 07 46 50.23 +23 01 53.1 19.4 V G96 – Mt. Lemmon Survey MPS 199520
2007 02 16.23650 07 46 50.08 +23 01 54.0 19.0 V G96 – Mt. Lemmon Survey MPS 199520
2007 02 22.24751 07 44 21.15 +23 22 03.2 20.0 V G96 – Mt. Lemmon Survey MPS 200436
2007 02 22.24862 07 44 21.15 +23 22 03.2 19.9 V G96 – Mt. Lemmon Survey MPS 200436
2007 02 22.25298 07 44 21.04 +23 22 03.9 20.0 V G96 – Mt. Lemmon Survey MPS 200436
2007 02 22.25406 07 44 21.01 +23 22 04.2 19.8 V G96 – Mt. Lemmon Survey MPS 200436
2007 02 22.25848 07 44 20.94 +23 22 05.0 20.1 V G96 – Mt. Lemmon Survey MPS 200436
2007 02 22.25964 07 44 20.90 +23 22 05.1 19.8 V G96 – Mt. Lemmon Survey MPS 200436
2007 02 22.26978 07 44 20.65 +23 22 07.0 19.9 V G96 – Mt. Lemmon Survey MPS 200436
2008 04 13.41856 16 28 41.98 -14 05 26.8 20.3 V G96 – Mt. Lemmon Survey MPS 246807
2008 04 13.42512 16 28 41.84 -14 05 25.1 20.2 V G96 – Mt. Lemmon Survey MPS 246807
2008 04 13.43178 16 28 41.66 -14 05 25.1 19.9 V G96 – Mt. Lemmon Survey MPS 246807
2008 04 13.43832 16 28 41.59 -14 05 23.7 20.3 V G96 – Mt. Lemmon Survey MPS 246807
2008 05 28.27994 15 55 55.63 -12 37 05.9 20.2 V G96 – Mt. Lemmon Survey MPS 250495
2008 05 28.28579 15 55 55.30 -12 37 05.4 20.1 V G96 – Mt. Lemmon Survey MPS 250495
2008 05 28.29161 15 55 54.98 -12 37 05.1 20.3 V G96 – Mt. Lemmon Survey MPS 250495
2008 05 28.29745 15 55 54.66 -12 37 04.8 20.3 V G96 – Mt. Lemmon Survey MPS 250495
2008 05 28.40763 15 55 48.57 -12 36 56.4 20.5 V 691 – Steward Observatory, Kitt Peak-Spacewatch MPS 250495
2008 05 28.42872 15 55 47.42 -12 36 55.2 20.4 V 691 – Steward Observatory, Kitt Peak-Spacewatch MPS 250495
2008 05 28.44636 15 55 46.46 -12 36 54.0 20.7 V 691 – Steward Observatory, Kitt Peak-Spacewatch MPS 250495
2008 06 23.26269 15 37 07.01 -12 36 10.5 20.7 V 691 – Steward Observatory, Kitt Peak-Spacewatch MPS 251691
2008 06 23.28927 15 37 06.12 -12 36 11.9 20.9 V 691 – Steward Observatory, Kitt Peak-Spacewatch MPS 251691
2008 06 23.31930 15 37 05.22 -12 36 13.2 21.0 V 691 – Steward Observatory, Kitt Peak-Spacewatch MPS 251691
2010 11 04.29910 04 27 23.70 +13 19 15.2 20.2 R H15 – ISON-NM Observatory, Mayhill MPS 355082
